User: anonymous   Login
Location: Unspecified
(0.0000°N, 0.0000°E)
Time: 07:03:11
(UTC+00:00)
Language:

Alouette 1 - Orbit

View from above orbital plane
View from above orbital plane
View from above satellite
View from above satellite

Ground track
Ground track

The orbit data is extracted from the following two-line orbital elements,

1 00424U 62049A   16036.13948727  .00000092  00000-0  96576-4 0  9996
2 00424  80.4655  39.5430 0022020 279.8350 149.1955 13.69042947663323
Epoch (UTC): 05 February 2016 03:20:51
Eccentricity: 0.0022020
inclination: 80.4655°
perigee height: 987 km
apogee height: 1019 km
right ascension of ascending node: 39.5430°
argument of perigee: 279.8350°
revolutions per day: 13.69042947
mean anomaly at epoch: 149.1955°
orbit number at epoch: 66332

The dashed part of the orbit path shows where the satellite is in the earth's shadow,  

DLR